VU3OPX-13 Weather Reports


Display with metric or nautical units.
time (UTC)temp
F
wind
direction
speed
MPH
gust
MPH
rain 1hr
in
rain 24hr
in
rain mn
in
humidity
%
barometer
mb
20260505100041 98 268 15.0 0.0 0.00 0.00 8.26 19 1005.0
20260505093053 98 268 15.0 0.0 0.00 0.00 8.26 19 1005.0
20260505090105 98 261 11.0 0.0 0.00 0.00 8.26 18 1006.0
20260505083118 98 261 11.0 0.0 0.00 0.00 8.26 18 1006.0
20260505080131 98 262 10.0 0.0 0.00 0.00 8.26 18 1008.0
20260505073144 98 262 10.0 0.0 0.00 0.00 8.26 18 1008.0
20260505070156 96 275 9.0 0.0 0.00 0.00 8.26 20 1009.0
20260505063209 96 275 9.0 0.0 0.00 0.00 8.26 20 1009.0
20260505060221 94 288 9.0 0.0 0.00 0.00 8.26 22 1010.0
20260505053234 94 290 10.0 0.0 0.00 0.00 8.26 22 1010.0
20260505050247 90 292 9.0 0.0 0.00 0.00 8.26 30 1011.0
20260505040311 85 287 8.0 0.0 0.00 0.00 8.26 42 1011.0
20260505033324 85 287 8.0 0.0 0.00 0.00 8.26 42 1011.0
20260505030336 79 275 7.0 0.0 0.00 0.00 8.26 62 1011.0
20260505023349 79 275 7.0 0.0 0.00 0.00 8.26 62 1011.0
20260505020402 73 254 5.0 0.0 0.00 0.00 8.26 82 1011.0
20260505013413 73 254 5.0 0.0 0.00 0.00 8.26 82 1011.0
20260505010426 70 245 5.0 0.0 0.00 0.00 8.26 96 1010.0
20260505003438 70 245 5.0 0.0 0.00 0.00 8.26 94 1010.0
20260505000451 69 254 5.0 0.0 0.00 0.00 8.26 94 1010.0
20260504233504 69 258 5.0 0.0 0.00 0.00 8.26 94 1010.0
20260504230517 70 261 5.0 0.0 0.00 0.00 8.26 93 1009.0
20260504223529 70 261 5.0 0.0 0.00 0.00 8.26 93 1009.0
20260504220542 71 274 6.0 0.0 0.00 0.00 8.26 91 1009.0
20260504213555 71 274 6.0 0.0 0.00 0.00 8.26 91 1009.0
20260504210607 71 279 7.0 0.0 0.00 0.00 8.26 94 1009.0
20260504203620 71 279 7.0 0.0 0.00 0.00 8.26 94 1009.0
20260504200632 71 283 5.0 0.0 0.00 0.00 8.26 95 1010.0
20260504193645 71 283 5.0 0.0 0.00 0.00 8.26 95 1010.0
20260504190658 71 277 5.0 0.0 0.00 0.00 8.26 94 1010.0
20260504183710 71 277 5.0 0.0 0.00 0.00 8.26 94 1010.0
20260504180723 72 263 6.0 0.0 0.00 0.00 8.26 90 1010.0
20260504170748 74 259 8.0 0.0 0.00 0.00 8.26 82 1010.0
20260504150839 79 263 10.0 0.0 0.00 0.00 8.26 61 1009.0